When you browse on this site, cookies collect data to enhance your experience and personalize the content and advertising you see.
Visit our Privacy Policy to learn more. By continuing to use the site, you agree to this use of cookies and data.
  • în România
  • Lista ţărilor
  • Pe 7 zile
  • Temperatura apei
  • Hartă satelitară
  • Meteo pe hartă
  • Widget-uri
  • user-avatar
    Intrare

    Meteo pe oră la Pietrzykow

    Astăzi, 27 Iunie, Joi

    Timp Temperatura Precipitaţii Vânt Presiune Umiditate
    00:00 +24°C° 0.1 mm 3 m/s 736 mmHg 80%
    01:00 +23°C° 0.1 mm 2 m/s 736 mmHg 87%
    02:00 +22°C° 0 mm 3 m/s 736 mmHg 89%
    03:00 +22°C° 0 mm 3 m/s 737 mmHg 91%
    04:00 +21°C° 0 mm 3 m/s 737 mmHg 93%
    05:00 +21°C° 0 mm 4 m/s 737 mmHg 92%
    06:00 +20°C° 0 mm 4 m/s 737 mmHg 90%
    07:00 +19°C° 0 mm 5 m/s 737 mmHg 88%
    08:00 +20°C° 0 mm 5 m/s 737 mmHg 80%
    09:00 +21°C° 0 mm 5 m/s 738 mmHg 72%
    10:00 +21°C° 0 mm 6 m/s 738 mmHg 63%
    11:00 +22°C° 0 mm 6 m/s 738 mmHg 58%
    12:00 +22°C° 0 mm 6 m/s 738 mmHg 52%
    13:00 +23°C° 0 mm 6 m/s 738 mmHg 47%
    14:00 +23°C° 0 mm 6 m/s 737 mmHg 48%
    15:00 +23°C° 0 mm 6 m/s 737 mmHg 48%
    16:00 +23°C° 0 mm 5 m/s 737 mmHg 49%
    17:00 +22°C° 0 mm 5 m/s 737 mmHg 56%
    18:00 +21°C° 0 mm 4 m/s 736 mmHg 62%
    19:00 +20°C° 0 mm 3 m/s 736 mmHg 68%
    20:00 +18°C° 0 mm 3 m/s 737 mmHg 73%
    21:00 +17°C° 0 mm 3 m/s 737 mmHg 78%
    22:00 +14°C° 0 mm 3 m/s 737 mmHg 83%
    23:00 +14°C° 0 mm 3 m/s 738 mmHg 86%

    Mâine, 28 Iunie, Vineri

    Timp Temperatura Precipitaţii Vânt Presiune Umiditate
    00:00 +14°C° 0 mm 2 m/s 738 mmHg 88%
    01:00 +13°C° 0 mm 2 m/s 738 mmHg 90%
    02:00 +13°C° 0 mm 2 m/s 738 mmHg 89%
    03:00 +13°C° 0 mm 2 m/s 738 mmHg 88%
    04:00 +13°C° 0 mm 2 m/s 738 mmHg 87%
    05:00 +14°C° 0 mm 2 m/s 738 mmHg 84%
    06:00 +15°C° 0 mm 2 m/s 738 mmHg 80%
    07:00 +16°C° 0 mm 3 m/s 738 mmHg 77%
    08:00 +16°C° 0 mm 2 m/s 738 mmHg 75%
    09:00 +17°C° 0 mm 2 m/s 738 mmHg 72%
    10:00 +18°C° 0 mm 2 m/s 738 mmHg 70%
    11:00 +19°C° 0 mm 3 m/s 738 mmHg 67%
    12:00 +20°C° 0 mm 3 m/s 738 mmHg 65%
    13:00 +21°C° 0 mm 4 m/s 738 mmHg 62%
    14:00 +21°C° 0 mm 4 m/s 738 mmHg 62%
    15:00 +22°C° 0 mm 4 m/s 738 mmHg 62%
    16:00 +22°C° 0 mm 4 m/s 738 mmHg 62%
    17:00 +21°C° 0.1 mm 3 m/s 738 mmHg 67%
    18:00 +20°C° 0.1 mm 3 m/s 738 mmHg 72%
    19:00 +20°C° 0.1 mm 2 m/s 738 mmHg 77%
    20:00 +18°C° 0 mm 2 m/s 738 mmHg 79%
    21:00 +18°C° 0 mm 1 m/s 738 mmHg 81%
    22:00 +16°C° 0 mm 1 m/s 738 mmHg 82%
    23:00 +15°C° 0 mm 1 m/s 738 mmHg 85%

    Poimâine, 29 Iunie, Sâmbătă

    Timp Temperatura Precipitaţii Vânt Presiune Umiditate
    00:00 +14°C° 0 mm 1 m/s 738 mmHg 87%
    01:00 +13°C° 0 mm 0 m/s 738 mmHg 89%
    02:00 +12°C° 0 mm 0 m/s 738 mmHg 89%
    03:00 +13°C° 0 mm 1 m/s 738 mmHg 89%
    04:00 +13°C° 0 mm 1 m/s 738 mmHg 89%
    05:00 +15°C° 0 mm 1 m/s 738 mmHg 82%
    06:00 +18°C° 0 mm 1 m/s 738 mmHg 75%
    07:00 +20°C° 0 mm 1 m/s 738 mmHg 68%
    08:00 +22°C° 0 mm 1 m/s 738 mmHg 62%
    09:00 +23°C° 0 mm 1 m/s 738 mmHg 55%
    10:00 +25°C° 0 mm 1 m/s 738 mmHg 48%
    11:00 +25°C° 0 mm 1 m/s 738 mmHg 47%
    12:00 +26°C° 0 mm 1 m/s 738 mmHg 47%
    13:00 +26°C° 0 mm 1 m/s 737 mmHg 46%
    14:00 +26°C° 0 mm 1 m/s 737 mmHg 48%
    15:00 +27°C° 0 mm 1 m/s 737 mmHg 50%
    16:00 +27°C° 0 mm 1 m/s 736 mmHg 52%
    17:00 +26°C° 0 mm 1 m/s 736 mmHg 58%
    18:00 +25°C° 0 mm 1 m/s 736 mmHg 64%
    19:00 +24°C° 0 mm 1 m/s 736 mmHg 70%
    20:00 +22°C° 0 mm 1 m/s 736 mmHg 73%
    21:00 +20°C° 0 mm 2 m/s 736 mmHg 76%
    22:00 +18°C° 0 mm 2 m/s 736 mmHg 79%
    23:00 +18°C° 0 mm 2 m/s 736 mmHg 79%

    30 Iunie, Duminică

    Timp Temperatura Precipitaţii Vânt Presiune Umiditate
    00:00 +18°C° 0 mm 2 m/s 736 mmHg 78%
    01:00 +17°C° 0 mm 2 m/s 736 mmHg 78%
    02:00 +17°C° 0 mm 2 m/s 735 mmHg 78%
    03:00 +17°C° 0 mm 2 m/s 735 mmHg 78%
    04:00 +16°C° 0 mm 2 m/s 735 mmHg 78%
    05:00 +18°C° 0 mm 2 m/s 735 mmHg 74%
    06:00 +20°C° 0 mm 2 m/s 735 mmHg 70%
    07:00 +23°C° 0 mm 2 m/s 735 mmHg 67%
    08:00 +25°C° 0 mm 3 m/s 735 mmHg 61%
    09:00 +26°C° 0 mm 3 m/s 735 mmHg 55%
    10:00 +28°C° 0 mm 4 m/s 735 mmHg 49%
    11:00 +28°C° 0 mm 4 m/s 735 mmHg 48%
    12:00 +29°C° 0 mm 5 m/s 735 mmHg 46%
    13:00 +30°C° 0 mm 5 m/s 734 mmHg 45%
    14:00 +30°C° 0 mm 5 m/s 734 mmHg 46%
    15:00 +30°C° 0 mm 5 m/s 733 mmHg 48%
    16:00 +30°C° 0 mm 5 m/s 733 mmHg 50%
    17:00 +29°C° 0 mm 4 m/s 733 mmHg 56%
    18:00 +27°C° 0 mm 4 m/s 733 mmHg 63%
    19:00 +26°C° 0 mm 4 m/s 732 mmHg 69%
    20:00 +25°C° 0 mm 4 m/s 732 mmHg 70%
    21:00 +23°C° 0 mm 5 m/s 732 mmHg 70%
    22:00 +22°C° 0 mm 5 m/s 732 mmHg 71%
    23:00 +22°C° 0 mm 4 m/s 732 mmHg 73%

    1 Iulie, Luni

    Timp Temperatura Precipitaţii Vânt Presiune Umiditate
    00:00 +21°C° 0 mm 4 m/s 732 mmHg 76%
    01:00 +20°C° 0 mm 3 m/s 732 mmHg 78%
    02:00 +20°C° 0 mm 3 m/s 732 mmHg 80%
    03:00 +20°C° 0 mm 3 m/s 732 mmHg 81%
    04:00 +19°C° 0 mm 2 m/s 732 mmHg 83%
    05:00 +20°C° 0 mm 3 m/s 732 mmHg 81%
    06:00 +22°C° 0 mm 3 m/s 733 mmHg 80%
    07:00 +24°C° 0 mm 3 m/s 733 mmHg 78%
    08:00 +25°C° 0 mm 3 m/s 733 mmHg 76%
    09:00 +26°C° 0 mm 3 m/s 733 mmHg 73%
    10:00 +27°C° 0 mm 2 m/s 733 mmHg 70%
    11:00 +27°C° 0.2 mm 3 m/s 733 mmHg 69%
    12:00 +27°C° 0.2 mm 3 m/s 733 mmHg 68%
    13:00 +27°C° 0.2 mm 3 m/s 732 mmHg 67%
    14:00 +27°C° 0.3 mm 3 m/s 732 mmHg 67%
    15:00 +27°C° 0.3 mm 3 m/s 732 mmHg 67%
    16:00 +27°C° 0.3 mm 4 m/s 732 mmHg 67%
    17:00 +26°C° 0.2 mm 3 m/s 732 mmHg 70%
    18:00 +25°C° 0.2 mm 3 m/s 732 mmHg 73%
    19:00 +24°C° 0.2 mm 3 m/s 731 mmHg 77%
    20:00 +22°C° 0 mm 3 m/s 732 mmHg 75%
    21:00 +20°C° 0 mm 2 m/s 732 mmHg 72%
    22:00 +19°C° 0 mm 2 m/s 732 mmHg 70%
    23:00 +18°C° 0 mm 2 m/s 732 mmHg 71%

    2 Iulie, Marţi

    Timp Temperatura Precipitaţii Vânt Presiune Umiditate
    00:00 +17°C° 0 mm 2 m/s 732 mmHg 72%
    01:00 +17°C° 0 mm 2 m/s 733 mmHg 72%
    02:00 +16°C° 0 mm 3 m/s 733 mmHg 78%
    03:00 +16°C° 0 mm 3 m/s 733 mmHg 84%
    04:00 +14°C° 0 mm 3 m/s 733 mmHg 90%
    05:00 +16°C° 0 mm 3 m/s 733 mmHg 88%
    06:00 +15°C° 0 mm 4 m/s 734 mmHg 85%
    07:00 +17°C° 0 mm 4 m/s 734 mmHg 83%
    08:00 +17°C° 0 mm 5 m/s 734 mmHg 75%
    09:00 +19°C° 0 mm 5 m/s 734 mmHg 66%
    10:00 +20°C° 0 mm 6 m/s 734 mmHg 58%
    11:00 +20°C° 0 mm 6 m/s 734 mmHg 56%
    12:00 +21°C° 0 mm 6 m/s 734 mmHg 53%
    13:00 +21°C° 0 mm 6 m/s 734 mmHg 50%
    14:00 +21°C° 0 mm 6 m/s 734 mmHg 52%
    15:00 +21°C° 0 mm 6 m/s 734 mmHg 54%
    16:00 +21°C° 0 mm 6 m/s 734 mmHg 56%
    17:00 +20°C° 0 mm 5 m/s 734 mmHg 62%
    18:00 +19°C° 0 mm 4 m/s 734 mmHg 67%
    19:00 +18°C° 0 mm 3 m/s 734 mmHg 72%
    20:00 +17°C° 0 mm 3 m/s 735 mmHg 75%
    21:00 +14°C° 0 mm 3 m/s 735 mmHg 77%
    22:00 +13°C° 0 mm 3 m/s 736 mmHg 79%
    23:00 +13°C° 0 mm 2 m/s 736 mmHg 81%
    Arată mai mult